sat.trackr.live / text

‹ back to catalog

STARLINK-5310

NORAD 55272 · 2023-010D

PAYLOAD ACTIVE UNKNOWN

§ Identity

Operator
Country
US
Launch date
2023-01-19
Launch site
AFWTR
Launch vehicle
Mass (kg)
RCS (m²)

Purposes: comms

External: N2YO · Heavens-Above · Gunter

§ Orbital elements

Epoch: 2026-09-20T22:00:03.000096Z

Period
95.63 min
Inclination
69.9996°
Eccentricity
0.0006095
Mean motion
15.05727170 rev/d
Perigee alt
545.1 km
Apogee alt
553.5 km
Semi-major
6,927.4 km
B*
7.7524e-3
RAAN
272.1573°
Arg perigee
265.9595°
Mean anomaly
351.9663°
Rev number
576

§ Raw data

STARLINK-53101 55272U 23010D   26263.91670139  .00114159  00000+0  77524-2 0  99992 55272  69.9996 272.1573 0006095 265.9595 351.9663 15.05727170  5765

JSON: /api/v1/satellites/55272 · /tle

For live sub-satellite position, see the globe view (requires WebGL).

§ Visibility from observer

Set your observer location to see the next 7 days of passes ≥ 10°. The values pass through the URL so the page stays shareable.

No JS? Fill the form by hand. The geolocation button needs JavaScript.